Flag for Greenland Weather past 2 weeks in Danmarkshavn, Greenland

Now
40 °F

Sunny.


Feels Like: 40 °F
Forecast: 37 / 41 °F
Wind: 1 mph from East

Location: Danmarkshavn

Current Time: Aug 1, 2015 at 6:23:14 AM

Latest Report: Aug 1, 2015 at 5:00 AM


Visibility: 31 mi

Pressure: 30.28 "Hg

Humidity: 86%

Dew point: 36 °F

Location of DanmarkshavnLocation

Historic Weather in Danmarkshavn — Graph

°F

Danmarkshavn temperature yesterday

Maximum temperature yesterday: 46 °F (at 4:00 PM)
Minimum temperature yesterday: 37 °F (at 8:00 AM)
Average temperature yesterday: 41 °F

Past Weeks' High & Low Weather Summary

 TemperatureHumidityPressure
High56 °F (Jul 17, 1:00 PM)99% (Jul 31, 9:00 AM)30.30 "Hg (Jul 31, 9:00 AM)
Low28 °F (Jul 27, 4:00 AM)45% (Jul 17, 12:00 PM)29.93 "Hg (Jul 25, 10:00 PM)
Average40 °F79%30.10 "Hg
* Reported Jul 17 2:00 AM — Aug 1 2:00 AM, Danmarkshavn, Weather by CustomWeather, © 2015

Note: Actual official high and low records may vary slightly from our data, if they occured in-between our weather recording intervals... More about our weather records

Advertising

Danmarkshavn weather history for previous 24 hours

 ConditionsComfort  
Time TempWeatherWind HumidityBarometerVisibility
2:00 AM
Sat, Aug 1
41 °FPassing clouds.2 mph88%30.30 "Hg31 mi
1:00 AM41 °FPassing clouds.1 mph89%30.29 "Hg31 mi
12:00 AM41 °FPassing clouds.1 mph88%30.29 "Hg31 mi
11:00 PM
Fri, Jul 31
43 °FSunny.3 mph88%30.29 "Hg31 mi
10:00 PM44 °FSunny.3 mph83%30.29 "Hg31 mi
9:00 PM45 °FSunny.1 mph83%30.28 "Hg31 mi
8:00 PM43 °FSunny.2 mph79%30.29 "Hg31 mi
7:00 PM42 °FSunny.2 mph85%30.28 "Hg31 mi
6:00 PM43 °FSunny.1 mph89%30.29 "Hg31 mi
5:00 PM44 °FPassing clouds.2 mph88%30.29 "Hg31 mi
4:00 PM46 °FSunny.3 mph86%30.29 "Hg22 mi
3:00 PM42 °FSunny.6 mph91%30.29 "Hg28 mi
2:00 PM42 °FPassing clouds.10 mph90%30.29 "Hg25 mi
1:00 PM42 °FFog.7 mph93%30.29 "Hg15 mi
12:00 PM41 °FHeavy rain. Sunny.2 mph95%30.29 "Hg7 mi
11:00 AM37 °FSunny.3 mph98%30.29 "Hg3 mi
10:00 AM38 °FHeavy rain. Sunny.3 mph98%30.29 "Hg4 mi
9:00 AM38 °FLight snow. Low clouds.2 mph99%30.28 "Hg3 mi
8:00 AM37 °FLight snow. Low clouds.1 mph97%30.27 "Hg2 mi
7:00 AM38 °FHeavy rain. Low clouds.2 mph98%30.26 "Hg2 mi
6:00 AM38 °FFog.6 mph95%30.25 "Hg28 mi
Weather by CustomWeather, © 2015

See weather overviewHow to use our weather pages